[[{"header":{"parameterUnit":"m.s-1","parameterCategory":1,"la1":30.2991,"la2":30.254,"lo1":-89.0895,"lo2":-89.0444,"dy":0.0017,"dx":0.0017,"nx":28,"ny":28,"refTime":"2024-04-20T09:00:00:Z","depth":0,"parameterNumber":2,"parameterNumberName":"U-component_of_WINDS"},"data":[0,0,0,0,0,0,0,0,0,0,0,0,0,0,0,0,0,0,0,0,0,0,0,0,0,0,0,0,0,0,0,0,0,0,0,0,0,0,0,0,0,0,0,0,0,0,0,0,0,0,0,0,0,0,0,0,0,0,0.2052,0.2051,0,0.2009,0.2009,0.2008,0.201,0.201,0.2011,0.2012,0.1964,0.1962,0.196,0,0,0,0,0,0,0,0,0,0,0,0,0,0.213,0.2128,0.2052,0.2051,0.2051,0.2009,0.2009,0.2008,0.201,0.2011,0.2011,0.2012,0.1964,0.1962,0.196,0,0,0,0,0,0,0,0,0,0,0,0,0,0.2092,0.2128,0.2052,0.2046,0.2046,0.201,0.2009,0.2008,0.201,0.2011,0.2011,0.2012,0.1965,0.1962,0.196,0.1925,0,0,0.1951,0.195,0,0,0,0,0,0,0,0,0.2094,0.2089,0.2048,0.2047,0.2046,0.2016,0.2019,0.198,0.2009,0.2023,0.2012,0.2013,0.198,0.1976,0.1966,0.1922,0.192,0.1951,0.1949,0.1948,0.1947,0,0,0,0,0,0,0,0.2097,0.2091,0.2035,0.2047,0.2046,0.2045,0.2041,0.2011,0.1997,0.2022,0.2022,0.2017,0.198,0.1969,0.1965,0.192,0.1951,0.1949,0.1947,0.1946,0.1845,0.1844,0,0,0,0,0,0,0.2101,0.2093,0.2036,0.2033,0.2073,0.2043,0.2038,0.2024,0.1997,0.1994,0.2017,0.2017,0.1973,0.1968,0.1963,0.1919,0.1948,0.1946,0.1944,0.1846,0.1844,0.1843,0,0,0,0,0,0,0.2103,0.2096,0.2038,0.2063,0.2056,0.2041,0.2025,0.2023,0.2012,0.1993,0.199,0.2008,0.1974,0.1967,0.1934,0.1918,0.1944,0.1942,0.1847,0.1845,0.1844,0.1832,0,0,0,0,0,0,0.2105,0.2097,0.2084,0.2063,0.2055,0.2011,0.2024,0.2022,0.2008,0.2009,0.1985,0.1981,0.1974,0.1939,0.1932,0.1915,0.194,0.1848,0.1846,0.1844,0.1834,0.183,0.1828,0,0,0,0,0,0.2108,0.2082,0.2083,0.2076,0.2039,0.201,0.2005,0.1998,0.2007,0.1993,0.1981,0.1982,0.1922,0.1935,0.1928,0.1909,0.1849,0.1847,0.1844,0.1835,0.1831,0.1828,0,0,0,0,0,0,0.2099,0.2079,0.208,0.2047,0.203,0.201,0.1993,0.1994,0.1973,0.1974,0.1965,0.196,0.1926,0.1915,0.1931,0.1874,0.1886,0.1882,0.1882,0.1878,0.1875,0.1877,0.1938,0,0,0,0,0,0.2094,0.2073,0.2056,0.2028,0.202,0.2008,0.1995,0.1991,0.1973,0.1965,0.1951,0.1932,0.1908,0.1893,0.187,0.1833,0.1827,0.1817,0.1814,0.1811,0.1807,0.1785,0.178,0.1835,0.1835,0.1836,0,0,0.2081,0.2068,0.2055,0.2026,0.2013,0.199,0.2002,0.1978,0.196,0.1961,0.1929,0.1918,0.1896,0.1861,0.1845,0.185,0.1791,0.1808,0.1806,0.1803,0.1782,0.1777,0.1772,0.1834,0.1834,0.1834,0,0,0.2046,0.2035,0.201,0.1997,0.1978,0.197,0.1964,0.1944,0.1937,0.1906,0.1906,0.1885,0.1845,0.1829,0.1816,0.1777,0.1777,0.177,0.1752,0.1731,0.1727,0.1723,0.1707,0.1702,0.1767,0.1767,0.1767,0,0.2033,0.2,0.1997,0.1973,0.1959,0.1962,0.1935,0.1922,0.1896,0.1886,0.1893,0.1843,0.1829,0.1789,0.178,0.177,0.1762,0.1771,0.1728,0.1724,0.172,0.1705,0.1699,0.1766,0.1766,0.1766,0.1766,0,0.1984,0.1962,0.1944,0.1919,0.1904,0.1879,0.1871,0.1856,0.1854,0.1845,0.1813,0.1796,0.177,0.1761,0.1758,0.1721,0.1724,0.173,0.1742,0.1714,0.17,0.1694,0.1765,0.1765,0.1765,0.1765,0,0,0.194,0.1916,0.1909,0.1898,0.1877,0.1859,0.1834,0.181,0.1796,0.1779,0.1756,0.1723,0.1728,0.1713,0.1709,0.1691,0.166,0.1699,0.1698,0.169,0.1616,0.1609,0.1603,0.1661,0.166,0.1659,0.1617,0,0.1901,0.1858,0.1855,0.1815,0.1793,0.1796,0.1774,0.1758,0.175,0.173,0.172,0.1696,0.1706,0.1697,0.1679,0.1667,0.1644,0.1671,0.1637,0.1636,0.164,0.1596,0.1589,0.155,0.1611,0.161,0.161,0,0.185,0.1833,0.1791,0.1774,0.1764,0.1745,0.1722,0.1704,0.1686,0.1681,0.1665,0.1664,0.1636,0.1652,0.1613,0.1631,0.1618,0.161,0.1608,0.1602,0.1619,0.1586,0.1538,0.1531,0.1601,0.1602,0.1602,0,0.182,0.1786,0.1756,0.1747,0.1726,0.1712,0.1703,0.1686,0.1672,0.1652,0.1643,0.162,0.1606,0.1588,0.158,0.1593,0.1541,0.1556,0.1535,0.1535,0.1521,0.1522,0.1467,0.1517,0.1517,0.1517,0.1517,0,0.1776,0.175,0.1742,0.1724,0.1695,0.1691,0.1662,0.1653,0.1638,0.1617,0.1618,0.1598,0.159,0.1568,0.1562,0.153,0.1524,0.1518,0.1516,0.1516,0.1517,0.1505,0.1507,0.1516,0.1516,0.1516,0.1517,0,0.1735,0.173,0.1697,0.1682,0.1677,0.1656,0.1641,0.1623,0.1616,0.1589,0.1583,0.1571,0.1545,0.1537,0.1505,0.1501,0.1463,0.1465,0.1469,0.1468,0.1446,0.1447,0.138,0.137,0.1429,0.1428,0.1428,0,0.1706,0.1686,0.1669,0.1656,0.1646,0.1625,0.1611,0.1607,0.1592,0.1571,0.1554,0.153,0.1509,0.1468,0.1456,0.1432,0.1431,0.1409,0.1427,0.1428,0.1428,0.1428,0.1425,0.1405,0.1404,0.1404,0.1403,0,0.1654,0.1653,0.1634,0.1613,0.1597,0.1581,0.1565,0.1553,0.1547,0.153,0.1505,0.1489,0.1458,0.1433,0.1409,0.1397,0.1398,0.1399,0.1392,0.139,0.1392,0.1388,0.1457,0.1399,0.14,0.14,0.14,0.14,0.1617,0.1599,0.1584,0.1562,0.1551,0.1536,0.1518,0.1509,0.1489,0.1464,0.1463,0.1436,0.1418,0.1386,0.1374,0.1351,0.1357,0.1347,0.1344,0.1341,0.1339,0.1399,0.1347,0.1347,0.1347,0.1347,0.1347,0,0.1563,0.1554,0.1535,0.1513,0.1496,0.1502,0.1484,0.1469,0.1445,0.1429,0.141,0.1381,0.1356,0.1343,0.1319,0.1303,0.1303,0.1296,0.1296,0.1293,0.1336,0.1343,0.1297,0.1297,0.1297,0.1297,0.1297,0.1297,0.1533,0.1503,0.15,0.1464,0.1455,0.1429,0.1418,0.1404,0.1392,0.1359,0.134,0.1332,0.1317,0.1292,0.1269,0.1266,0.1255,0.1248,0.1245,0.1285,0.129,0.1295,0.1301,0.1247,0.1247,0.1203,0.1203,0.1202]},{"header":{"parameterUnit":"m.s-1","parameterCategory":1,"la1":30.2991,"la2":30.254,"lo1":-89.0895,"lo2":-89.0444,"dy":0.0017,"dx":0.0017,"nx":28,"ny":28,"refTime":"2024-04-20T09:00:00:Z","depth":0,"parameterNumber":3,"parameterNumberName":"V-component_of_WINDS"},"data":[0,0,0,0,0,0,0,0,0,0,0,0,0,0,0,0,0,0,0,0,0,0,0,0,0,0,0,0,0,0,0,0,0,0,0,0,0,0,0,0,0,0,0,0,0,0,0,0,0,0,0,0,0,0,0,0,0,0,-7.1012,-7.1012,0,-7.1001,-7.1001,-7.1001,-7.0934,-7.0933,-7.0931,-7.093,-7.0919,-7.0921,-7.0922,0,0,0,0,0,0,0,0,0,0,0,0,0,-7.0977,-7.0978,-7.1012,-7.1012,-7.1012,-7.1001,-7.1001,-7.1001,-7.0935,-7.0933,-7.0931,-7.0929,-7.0919,-7.092,-7.0922,0,0,0,0,0,0,0,0,0,0,0,0,0,-7.0982,-7.0979,-7.1012,-7.0978,-7.0974,-7.1001,-7.1001,-7.1001,-7.0935,-7.0933,-7.093,-7.0928,-7.0918,-7.092,-7.0922,-7.0982,0,0,-7.0928,-7.0928,0,0,0,0,0,0,0,0,-7.0982,-7.0983,-7.0983,-7.098,-7.0976,-7.0967,-7.0985,-7.0994,-7.0936,-7.095,-7.093,-7.0927,-7.0937,-7.0937,-7.094,-7.0981,-7.0981,-7.0928,-7.0929,-7.093,-7.093,0,0,0,0,0,0,0,-7.0982,-7.0984,-7.1008,-7.0983,-7.0979,-7.0963,-7.0961,-7.0986,-7.0957,-7.0949,-7.0944,-7.0943,-7.0935,-7.0939,-7.094,-7.0981,-7.0928,-7.0929,-7.0931,-7.0931,-7.1068,-7.1071,0,0,0,0,0,0,-7.0986,-7.0984,-7.1008,-7.1007,-7.0973,-7.0966,-7.0963,-7.0972,-7.0957,-7.0952,-7.0945,-7.094,-7.0937,-7.0938,-7.0939,-7.1006,-7.093,-7.0931,-7.0933,-7.1066,-7.1069,-7.1071,0,0,0,0,0,0,-7.0986,-7.0989,-7.1009,-7.0994,-7.0996,-7.0969,-7.0979,-7.0973,-7.0977,-7.0954,-7.0949,-7.0955,-7.0935,-7.0937,-7.0971,-7.1005,-7.0932,-7.0934,-7.1063,-7.1067,-7.107,-7.1142,0,0,0,0,0,0,-7.0985,-7.0989,-7.1011,-7.0995,-7.0997,-7.1041,-7.0981,-7.0975,-7.098,-7.0973,-7.0961,-7.0957,-7.0933,-7.0969,-7.0973,-7.1006,-7.0935,-7.1059,-7.1064,-7.1069,-7.1136,-7.1147,-7.1157,0,0,0,0,0,-7.0984,-7.1032,-7.1013,-7.1016,-7.1024,-7.1043,-7.1043,-7.1014,-7.0983,-7.1005,-7.0991,-7.0958,-7.1001,-7.0973,-7.0977,-7.1011,-7.1057,-7.1063,-7.1069,-7.1131,-7.1145,-7.1157,0,0,0,0,0,0,-7.1053,-7.103,-7.1007,-7.1052,-7.105,-7.1031,-7.1058,-7.103,-7.1037,-7.103,-7.0995,-7.0993,-7.1032,-7.1026,-7.0995,-7.1067,-7.1023,-7.103,-7.107,-7.1083,-7.1093,-7.1093,-7.0937,0,0,0,0,0,-7.1074,-7.1091,-7.107,-7.1111,-7.1111,-7.1085,-7.1093,-7.107,-7.1067,-7.1065,-7.1053,-7.1051,-7.1064,-7.1074,-7.1085,-7.1136,-7.1131,-7.1161,-7.1172,-7.1181,-7.1186,-7.1211,-7.1223,-7.109,-7.109,-7.109,0,0,-7.1116,-7.1106,-7.1119,-7.1125,-7.112,-7.1139,-7.1085,-7.1107,-7.112,-7.1069,-7.11,-7.1092,-7.1087,-7.113,-7.1148,-7.1125,-7.1222,-7.1188,-7.1195,-7.1196,-7.1218,-7.1231,-7.1242,-7.1094,-7.1093,-7.1093,0,0,-7.1203,-7.1197,-7.123,-7.1227,-7.122,-7.1203,-7.1211,-7.1197,-7.1189,-7.1219,-7.1181,-7.1197,-7.1221,-7.1218,-7.122,-7.1306,-7.1276,-7.1311,-7.1365,-7.139,-7.14,-7.1409,-7.1438,-7.1449,-7.1317,-7.1318,-7.1318,0,-7.1256,-7.1282,-7.1251,-7.1275,-7.1278,-7.1233,-7.1266,-7.1264,-7.1263,-7.1266,-7.1241,-7.1269,-7.1263,-7.1303,-7.1324,-7.1328,-7.1336,-7.1311,-7.1401,-7.141,-7.1418,-7.1445,-7.1456,-7.1322,-7.1321,-7.1321,-7.1321,0,-7.1347,-7.1366,-7.1393,-7.1391,-7.1398,-7.1427,-7.14,-7.1411,-7.1389,-7.1374,-7.1406,-7.1397,-7.1405,-7.1413,-7.1393,-7.1451,-7.1437,-7.1408,-7.1362,-7.1435,-7.146,-7.147,-7.1328,-7.1326,-7.1325,-7.1324,0,0,-7.1475,-7.1455,-7.1466,-7.1464,-7.1454,-7.1468,-7.1495,-7.1501,-7.151,-7.1512,-7.1532,-7.1553,-7.1526,-7.1528,-7.1507,-7.1529,-7.1595,-7.1496,-7.1496,-7.1513,-7.1657,-7.1677,-7.169,-7.1576,-7.1578,-7.158,-7.1657,0,-7.1555,-7.1598,-7.1571,-7.1619,-7.1634,-7.1592,-7.1615,-7.1612,-7.1599,-7.1611,-7.1598,-7.1612,-7.1576,-7.1577,-7.1597,-7.1583,-7.1623,-7.1577,-7.1594,-7.1595,-7.1593,-7.1703,-7.1724,-7.1797,-7.1666,-7.1668,-7.1669,0,-7.1654,-7.1658,-7.1707,-7.1693,-7.1698,-7.172,-7.1723,-7.1736,-7.1731,-7.172,-7.1723,-7.1696,-7.1721,-7.1679,-7.1712,-7.1682,-7.1688,-7.1682,-7.1684,-7.1682,-7.1634,-7.1701,-7.182,-7.183,-7.1684,-7.1683,-7.1682,0,-7.174,-7.1757,-7.1788,-7.1788,-7.1773,-7.1789,-7.1783,-7.1776,-7.1782,-7.1786,-7.1789,-7.1796,-7.18,-7.1806,-7.1782,-7.1754,-7.1818,-7.1774,-7.1809,-7.1809,-7.1822,-7.1821,-7.1941,-7.1831,-7.183,-7.183,-7.183,0,-7.1831,-7.1862,-7.1826,-7.1845,-7.1878,-7.1847,-7.1881,-7.1871,-7.1866,-7.1882,-7.1847,-7.1863,-7.1831,-7.1844,-7.1826,-7.1856,-7.1858,-7.185,-7.1844,-7.1851,-7.1852,-7.1852,-7.1845,-7.1833,-7.1833,-7.1832,-7.1831,0,-7.193,-7.1908,-7.1938,-7.1922,-7.1918,-7.1943,-7.1929,-7.1946,-7.1931,-7.1952,-7.1955,-7.1932,-7.1945,-7.1922,-7.1934,-7.1921,-7.1962,-7.195,-7.1963,-7.1958,-7.1993,-7.1989,-7.2115,-7.2129,-7.2013,-7.2014,-7.2015,0,-7.1989,-7.2011,-7.1996,-7.2004,-7.2,-7.2014,-7.2019,-7.1991,-7.1997,-7.1994,-7.2011,-7.2021,-7.2027,-7.2051,-7.2035,-7.2043,-7.2029,-7.2073,-7.203,-7.2036,-7.2027,-7.2025,-7.2026,-7.2081,-7.2082,-7.2084,-7.2084,0,-7.2094,-7.2081,-7.2089,-7.2094,-7.2101,-7.2104,-7.2104,-7.2112,-7.2082,-7.2092,-7.2104,-7.2109,-7.212,-7.213,-7.2134,-7.2129,-7.2101,-7.2099,-7.2106,-7.2112,-7.2118,-7.2113,-7.1983,-7.2095,-7.2094,-7.2093,-7.2093,-7.2092,-7.2172,-7.219,-7.2181,-7.2192,-7.2189,-7.219,-7.2204,-7.2191,-7.22,-7.2206,-7.2189,-7.2205,-7.22,-7.2203,-7.2201,-7.2213,-7.2194,-7.2206,-7.2209,-7.2211,-7.2216,-7.2119,-7.2214,-7.2214,-7.2214,-7.2213,-7.2213,0,-7.2273,-7.2266,-7.2276,-7.2276,-7.2284,-7.2258,-7.2257,-7.2265,-7.228,-7.2277,-7.2284,-7.2298,-7.2308,-7.2293,-7.2301,-7.2313,-7.2301,-7.2316,-7.2313,-7.2312,-7.2234,-7.2225,-7.2326,-7.2326,-7.2326,-7.2326,-7.2326,-7.2326,-7.2326,-7.2353,-7.234,-7.2366,-7.2358,-7.2373,-7.2374,-7.2375,-7.2372,-7.2389,-7.2396,-7.2387,-7.2379,-7.2386,-7.2394,-7.2389,-7.2392,-7.2412,-7.2402,-7.2329,-7.2318,-7.2307,-7.2298,-7.2413,-7.2413,-7.2479,-7.248,-7.248]}]]